Location: Sweet Grass
(48.9965°N, 111.9649°W)
Time: 13:57:14
(UTC+00:00)

Envisat - Pass Details

Date: 10 December 2022
Orbit: 763 x 765 km, 98.2° (Epoch: 06 February)

Event Time Altitude Azimuth Distance (km) Brightness Sun altitude
Rises 11:38:24 0° 15° (NNE) 3,246 6.5 -33.7°
Reaches altitude 10° 11:40:44 10° 18° (NNE) 2,315 5.7 -33.3°
Enters shadow 11:41:52 17° 20° (NNE) 1,876 5.2 -33.1°
